2020-085C

Last updated on Thu Dec 03 2020 00:02:04 GMT+0000 (Coordinated Universal Time)

1 46931U 20085C 20337.61976555 .00003457 00000-0 15538-3 0 9991 2 46931 97.3672 112.0043 0014664 237.9584 122.0233 15.21710854 1906
UTC large
Height (km)
Speed (km/s)
/
Latitude / Longitude
Inclination (degrees)
Orbital Period (minutes)
Azimuth
Elevation
Range (km)
Doppler Factor

Next 0 passes for location: London (51.5072 / 0.1276)

Sorry there are no passes over London.